Regional Weather Roundup
Issued by NWS Grand Forks, ND

Home | Current Version | Previous Version | Text Only | Print | Product List | Glossary Off
Versions: 1 2 3 4 5 6 7 8 9 10 11 12 13 14 15 16 17 18 19 20 21 22 23 24 25 26 27 28 29 30 31 32 33 34 35 36 37 38 39 40 41 42 43 44 45 46 47 48 49 50

000
ASUS43 KFGF 060410
RWRFGF
PRAIRIE TO PINES  WEATHER ROUNDUP
NATIONAL WEATHER SERVICE EASTERN NORTH DAKOTA/GRAND FORKS ND
1000 PM CST THU MAR 05 2015

 **SATELLITE DATA USED TO AUGMENT SKY COVER AT AUTOMATED STATIONS**
 *****  WEATHER ACROSS EASTERN NORTH DAKOTA  *****

CITY           SKY/WX    TMP DP  RH WIND       PRES   REMARKS
GRAND FORKS    MOCLDY    18  11  74 S17       30.01F WCI   3
GRAND FRKS AFB CLOUDY    20  10  66 SW14      29.99F WCI   6
GRAND FRKS NWS   N/A     16 N/A N/A S12         N/A  WCI   3
DEVILS LAKE    CLOUDY    21  12  68 SW12      29.96S WCI   9
FARGO          CLEAR     16   7  67 S13       30.10F WCI   2
WAHPETON ARPT  CLEAR     14   5  67 S10       30.14F WCI   1
$$

 ***** WEATHER ACROSS CENTRAL AND WESTERN NORTH DAKOTA  *****

CITY           SKY/WX    TMP DP  RH WIND       PRES   REMARKS
BISMARCK       CLEAR     24  13  62 SW5       30.05F WCI  18
MINOT          FAIR      28  14  55 W13       29.96S WCI  17
JAMESTOWN      CLEAR     16   9  74 S8        30.02F WCI   5
MINOT AFB      CLEAR     22  16  79 W13       29.95S WCI   9
GARRISON         N/A     21  12  68 W9        29.99F WCI  11
WILLISTON      CLOUDY    34  21  59 NW9       30.02S
DICKINSON      CLOUDY    31  15  52 W8        30.01F WCI  23
HETTINGER      PTCLDY    23  10  57 CALM      30.08S
$$

 *****  OTHER AIRPORT OBSERVATIONS IN OUR AREA  *****

CITY           SKY/WX    TMP DP  RH WIND       PRES   REMARKS
WALHALLA         N/A     25  14  63 W13G24    29.90S WCI  13
GRAFTON AIRPOR NOT AVBL
VALLEY CITY AR FLURRIES  18  12  79 SW16      30.03F WCI   3
CANDO          FAIR      18  12  79 W14       29.93F WCI   4
CAVALIER APRT  CLOUDY    27  16  63 SW10      29.92S WCI  17
GWINNER        CLEAR     18  10  73 SW10      30.10F WCI   6
SHEYENNE NWR     N/A     12   5  74 S6        29.95S WCI   3
ROLLA          FAIR      18  12  79 W14       29.90S WCI   4
 ***** THE ABOVE OBSERVATIONS ARE NON NWS ARE NOT QUALITY
       CONTROLLED AND MAY MIS-REPORT RAIN FOR SNOW...
$$

  *****  WEATHER ACROSS NORTHERN MINNESOTA  *****

CITY           SKY/WX    TMP DP  RH WIND       PRES   REMARKS
FLAG ISLAND    CLOUDY    14   7  73 SW17G23   29.93F WCI  -3
WARROAD        PTCLDY    16   7  67 S18G26    29.95F WCI  -1
ROSEAU         PTCLDY    16   7  67 S17       29.96F WCI   0
HALLOCK        NOT AVBL
THF RVR FALLS  PTCLDY    16   9  73 S20       30.01F WCI  -1
BAUDETTE       MOCLDY    12   0  58 S21G26    29.98F WCI  -7
WASKISH        FAIR      12   1  62 S8        30.05F WCI   1
CROOKSTON      PTCLDY    16   9  73 S24       30.05F WCI  -3
STEPHEN NDAWN    N/A     16  10  79 S20         N/A  WCI  -1
GREENBUSH NDAW   N/A     16   9  73 S24         N/A  WCI  -3
$$
  *****  WEATHER ACROSS CENTRAL AND WEST MINNESOTA  *****

CITY           SKY/WX    TMP DP  RH WIND       PRES   REMARKS
FOSSTON        CLEAR     12   5  73 S20G26    30.06F WCI  -6
BEMIDJI        CLEAR     10   1  67 S9        30.07F WCI  -4
PARK RAPIDS    CLEAR      8  -2  63 S10       30.11F WCI  -6
ELBOW LAKE     FAIR      12   5  73 SE16      30.14F WCI  -4
WADENA         PTCLDY     9   1  72 S9        30.14F WCI  -5
DETROIT LAKES  PTCLDY    12   5  73 S8        30.12S WCI   1
MOORHEAD       CLEAR     16  10  79 S14       30.12F WCI   1
FERGUS FALLS   CLEAR     12   3  67 S14       30.18F WCI  -3
MORRIS MN      CLEAR     10   5  79 SE12      30.16F WCI  -4
STAPLES        PTCLDY     7   1  78 S10       30.16F WCI  -8
$$
  *****  WEATHER ELSEWHERE ACROSS MINNESOTA  *****

CITY           SKY/WX    TMP DP  RH WIND       PRES   REMARKS
DULUTH         CLEAR      6  -5  60 SW14      30.19F WCI -11
INTRNTL FALLS  PTCLDY    11  -4  51 SW15G24   30.04F WCI  -5
ELY            CLEAR      7  -6  56 SW10G17   30.13F WCI  -8
CLOQUET        FAIR       7  -4  61 S10       30.21F WCI  -8
WHEATON        CLEAR     12   7  79 SE17      30.16F WCI  -5
BRAINERD       CLEAR      5  -2  72 S9        30.19F WCI  -9
HIBBING        PTCLDY     5  -6  60 S7        30.15F WCI  -7
ALEXANDRIA     CLEAR     12   3  67 S13       30.16F WCI  -3
SAINT CLOUD    PTCLDY     6   0  76 S9        30.25F WCI  -8
MINNEAPOLIS    FAIR      10   1  67 S9        30.34F WCI  -3
$$

  *****  WEATHER ACROSS SOUTH DAKOTA  *****

CITY           SKY/WX    TMP DP  RH WIND       PRES   REMARKS
SIOUX FALLS    CLEAR     22   7  52 S15       30.20F WCI   9
BROOKINGS      NOT AVBL
WATERTOWN      CLEAR     16   6  65 S15       30.12F WCI   1
HURON          CLEAR     22   7  52 S9        30.13F WCI  12
SISSETON       NOT AVBL
ABERDEEN       CLEAR     10   4  76 S5        30.12S WCI   2
MITCHELL       CLEAR     26   7  44 S12       30.16F WCI  16
PIERRE         CLEAR     25  17  72 W5        30.10F WCI  19
MOBRIDGE       CLEAR     22  13  68 SE7       30.06S WCI  13
RAPID CITY     CLEAR     29  15  56 SW3       30.14S
$$

  *****  SOME WEATHER IN NEARBY STATES *****

CITY           SKY/WX    TMP DP  RH WIND       PRES   REMARKS
GLASGOW MT     CLOUDY    34  18  52 N7        30.05S
GREAT FALLS MT MOCLDY    35  14  42 SW12      30.11S
CHEYENNE WY    PTCLDY    32  14  47 SW13      30.23R WCI  22
SCOTTSBLUFF NE CLEAR     28  19  69 NW5       30.23R WCI  23
OMAHA NE       CLEAR     25   7  46 S12       30.37F WCI  14
DES MOINES IA  PTCLDY    16   4  59 SE9       30.45F WCI   4
DAVENPORT IA   PTCLDY     3  -4  72 S3        30.54S
CHICAGO IL     PTCLDY     8  -2  63 W9        30.54R WCI  -5
EAU CLAIRE WI  PTCLDY     3  -6  66 SW7       30.39F WCI  -9
LA CROSSE WI   PTCLDY     7  -3  64 S7        30.47S WCI  -5
$$

  *****  SOME NATIONAL WEATHER *****

CITY           SKY/WX    TMP DP  RH WIND       PRES   REMARKS
LA GUARDIA NY  CLOUDY    22   5  48 NW24G30   30.35R WCI   5
RALEIGH NC     CLOUDY    32  26  78 N7        30.34R
ATLANTA GA     MOCLDY    31  24  75 NW14      30.31R WCI  21
NEW ORLEANS LA PTCLDY    36  23  59 N24G31    30.45R
OKLAHOMA CITY  CLEAR     29  17  61 S9        30.51S WCI  20
ALBUQUERQUE NM CLEAR     44  11  26 NW8       30.37R
SALT LAKE CITY PTCLDY    38  22  52 SE9       30.42R
LOS ANGELES CA CLEAR     61  43  51 W8        30.17S
BOISE ID       PTCLDY    41  22  46 CALM      30.35R
SEATTLE WA     MOCLDY    49  32  52 N6        30.38S
$$

*** WEATHER ACROSS MANITOBA...SASKATCHEWAN AND ONTARIO ***
                ***ONTARIO***

CITY           SKY/WX    TMP DP  RH WIND       PRES   REMARKS
GERALDTON      MOCLDY     3  -8  60 SW12      30.04F WCI -13
THUNDER BAY    PTCLDY    -6 -11  77 W7        30.18F WCI -20
SIOUX LOOKOUT  MOCLDY     9  -6  52 S12G20    29.93F WCI  -6
TORONTO        CLEAR      5  -6  61 W8        30.48S WCI  -8
BIG TROUT LK   FLURRIES   9   1  72 W9G17     29.70F WCI  -5
PICKLE LAKE    NOT AVBL
DRYDEN         MOCLDY     9  -4  56 S14G22    29.92F WCI  -8
KENORA         MOCLDY    12   5  73 SW20G32   29.89F WCI  -6
$$
                *** MANITOBA***

CITY           SKY/WX    TMP DP  RH WIND       PRES   REMARKS
BRANDON        CLEAR     10   5  79 W12       29.92R WCI  -4
DAUPHIN        CLEAR     16   9  73 W17       29.90R WCI   0
ISLAND LAKE    HVYSLEET  12  -2  52 W12G17    29.71F WCI  -2
PILOT MOUND      N/A     12   7  79 SW6         N/A  WCI   3
THE PAS        CLEAR     18   9  68 W15       29.81S WCI   3
THOMPSON       PTCLDY     5  -4  66 W8        29.68S WCI  -8
WINNIPEG       PTCLDY    19  10  68 SW14      29.89S WCI   6
LYNN LAKE      CLEAR      9   3  78 NW7       29.72R WCI  -3
CHURCHILL      LGT SNOW   0  -6  78 NW22      29.60R BLWGSNOWWCI -23
GILLAM         FLURRIES   7   1  78 W13       29.61S WCI  -9
$$
                ***SASKATCHEWAN***

CITY           SKY/WX    TMP DP  RH WIND       PRES   REMARKS
ESTEVAN        CLEAR     23  16  74 NW17      29.98R WCI   9
KINDERSLEY     MOCLDY    19  16  86 S9        30.00F WCI   9
LLOYDMINSTER   MOCLDY    25  19  80 SW10      29.92F WCI  15
PRINCE ALBERT  PTCLDY    21  12  68 W7        29.93S WCI  13
REGINA         CLEAR     12  10  92 NW10      30.00R WCI  -1
YORKTON        CLEAR     16  10  79 W13       29.92R WCI   2
N. BATTLEFORD  CLEAR     21  16  79 W7        29.98F WCI  13
LA RONGE       MOCLDY    25  14  63 W7        29.85S WCI  17
SASKATOON      CLEAR     14  10  85 W10       30.00S WCI   1
SWIFT CURRENT  CLEAR     23  19  86 SW10      30.01F WCI  12
$$
NOTE: THESE ARE AUTOMATED STATIONS WITH LIMITED QUALITY CONTROL
      "FAIR" INDICATES FEW OR NO CLOUDS BELOW 12,000 FEET WITH NO
      SIGNIFICANT WEATHER AND/OR OBSTRUCTIONS TO VISIBILITY.
      SKY/WX - SKY CONDITION AND SIGNIFICANT WEATHER.
      TMP - AIR TEMPERATURE.    DP   - DEWPOINT TEMPERATURE.
      RH  - RELATIVE HUMIDITY.  PRES - PRESSURE.
      HX  - HEAT INDEX.         WCI  - WIND CHILL INDEX.
$


USA.gov is the U.S. government's official web portal to all federal, state and local government web resources and services.